Weather in Peschanotavolzhanskoye

Russia / Kurgan Oblast     55°43′56″N   63°18′56″E
temp.,
°C
wind,
m/s
gust,
m/s
humid.,
%
clouds,
%
prec.,
mm/h
press.,
hPa
HPBL,
m
15 april, thu
thu1523:00+12wsw347969 0.0 102851
02:00+10wsw348650 0.0 102743
05:00+9sw33845 0.0 102735
08:00+10sw36725 0.0 1026157
11:00+15sw44525 0.0 1024416
14:00+19wsw46558 0.0 10231016
17:00+19w57425 0.0 10211303
20:00+14wsw335925 0.0 102036
16 april, fri
fri1623:00+12w356891 0.0 102066
02:00+10w36773 0.0 101984
05:00+8wnw358317 0.0 102064
08:00+8nne61088100 0.0 1021455
11:00+7ne7982100 0.0 1024651
14:00+6ne6875100 0.0 1025693
17:00+7ene4660100 0.0 1025739
20:00+6e116890 0.0 102513
17 april, sat
sat1723:00+5ne226992 0.0 102542
02:00+4ene227290 0.0 102416
05:00+4nne117518 0.0 102410
08:00+5nne22655 0.0 1024160
11:00+8n33462 0.0 10241106
14:00+10nnw33370 0.0 10231513
17:00+10nw34375 0.0 10221757
20:00+7nw22535 0.0 102019
18 april, sun
sun1823:00+6sw335743 0.0 101927
02:00+4w4977100 0.0 1017185
05:00+3wnw4107494 0.0 1016256
08:00+4wnw611674 0.0 1015599
11:00+7nnw7959100 0.0 10141610
14:00+4n91140100 0.4 10171757
17:00+3nne9114599 0.4 10202081
20:000nne812424 0.0 10241292
19 april, mon
mon1923:00−3nne712430 0.0 10271601
02:00−4nne7114613 0.0 10291660
05:00−5n7104711 0.0 10311515
08:00−5n81139100 0.0 10321786
11:00−2n81034100 0.0 10322276
14:000n81029100 0.0 10322474
17:000n792794 0.0 10322317
20:00−2n34425 0.0 103463